Guam Agana, GU

1:10 PM ChST on October 21, 2019 (GMT +1000)
Guam International

Weather History for PGUM - August, 2019

Change the Weather History Date:

Sunday, August 4, 2019

  Actual Average Record
Temperature  
Mean Temperature 78 °F -  
Max Temperature 81 °F 85 °F 91 °F (2013)
Min Temperature 75 °F 75 °F 73 °F (1999)
Cooling Degree Days 13    
Growing Degree Days 28 (Base 50)    
Moisture  
Dew Point 74 °F    
Average Humidity 87    
Maximum Humidity 90    
Minimum Humidity 81    
Precipitation  
Precipitation 0.71 in - - ()
Sea Level Pressure  
Sea Level Pressure 29.73 in    
Wind  
Wind Speed 9 mph (WSW)    
Max Wind Speed 25 mph    
Max Gust Speed 34 mph    
Visibility 6 miles    
Events Fog , Rain    
Averages and records for this station are not official NWS values.
T = Trace of Precipitation, MM = Missing Value Source: NWS Daily Summary

Daily Weather History Graph

Daily Weather History Graph

Search for Another Location

Airport or City:

Astronomy

Aug. 04, 2019 Rise Set
Actual Time 6:06 AM ChST 6:47 PM ChST
Civil Twilight 5:43 AM ChST 7:10 PM ChST
Nautical Twilight 5:17 AM ChST 7:36 PM ChST
Astronomical Twilight 4:50 AM ChST 8:03 PM ChST
Moon 8:59 AM ChST (8/4) 9:37 PM ChST (8/4)
Length of Visible Light 13h 26m
Length of Day
12h 41m
Waxing Crescent, 13% of the Moon is Illuminated
Aug 4
Waxing Crescent
Aug 8
First Quarter
Aug 15
Full
Aug 24
Last Quarter
Aug 30
New

Hourly Weather History & Observations

Time (ChST) Temp. Heat Index Dew Point Humidity Pressure Visibility Wind Dir Wind Speed Gust Speed Precip Events Conditions
12:54 AM 78.1 °F - 73.9 °F 87% 29.71 in 10.0 mi Calm Calm - N/A   Overcast
1:54 AM 77.0 °F - 73.0 °F 88% 29.70 in 10.0 mi Calm Calm - 0.01 in   Mostly Cloudy
2:54 AM 77.0 °F - 73.0 °F 88% 29.69 in 8.0 mi SW 5.8 mph - 0.00 in Rain Light Rain
3:45 AM 77.0 °F - 73.0 °F 88% 29.73 in 3.0 mi SSW 8.1 mph - 0.08 in Rain Light Rain
3:49 AM 77.0 °F - 73.4 °F 89% 29.73 in 2.0 mi SW 6.9 mph - 0.11 in Rain Heavy Rain
3:54 AM 77.0 °F - 73.0 °F 88% 29.71 in 1.2 mi WSW 5.8 mph - 0.15 in Rain Heavy Rain
4:01 AM 77.0 °F - 73.0 °F 88% 29.72 in 1.0 mi WSW 5.8 mph - 0.12 in Rain Heavy Rain
4:09 AM 77.0 °F - 73.0 °F 88% 29.72 in 2.0 mi WNW 4.6 mph - 0.17 in Rain Rain
4:17 AM 77.0 °F - 73.0 °F 88% 29.72 in 4.0 mi WNW 4.6 mph - 0.19 in Rain Rain
4:33 AM 77.0 °F - 73.9 °F 90% 29.72 in 3.0 mi North 3.5 mph - 0.23 in Rain Rain
4:39 AM 77.0 °F - 73.9 °F 90% 29.72 in 2.5 mi Calm Calm - 0.24 in Rain Rain
4:43 AM 77.0 °F - 73.9 °F 90% 29.72 in 1.5 mi NE 3.5 mph - 0.29 in Rain Heavy Rain
4:54 AM 77.0 °F - 73.9 °F 90% 29.70 in 3.0 mi North 3.5 mph - 0.36 in Rain Heavy Rain
5:01 AM 77.0 °F - 73.9 °F 90% 29.72 in 2.5 mi Calm Calm - 0.03 in Rain Heavy Rain
5:05 AM 77.0 °F - 73.9 °F 90% 29.72 in 1.8 mi Calm Calm - 0.06 in Rain Heavy Rain
5:21 AM 77.0 °F - 73.9 °F 90% 29.71 in 2.0 mi NE 4.6 mph - 0.26 in Rain Heavy Rain
5:31 AM 77.0 °F - 73.9 °F 90% 29.71 in 5.0 mi ENE 5.8 mph - 0.29 in Rain Rain
5:54 AM 77.0 °F - 73.9 °F 90% 29.70 in 6.0 mi SSE 6.9 mph - 0.34 in Rain Rain
6:16 AM 77.0 °F - 73.9 °F 90% 29.71 in 4.0 mi SSE 5.8 mph - 0.04 in Rain Rain
6:32 AM 77.0 °F - 73.9 °F 90% 29.71 in 7.0 mi SE 5.8 mph - 0.07 in Rain Rain
6:44 AM 77.0 °F - 73.9 °F 90% 29.72 in 5.0 mi SE 5.8 mph - 0.08 in Rain Rain
6:54 AM 77.0 °F - 73.9 °F 90% 29.70 in 4.0 mi SE 3.5 mph - 0.10 in Rain Light Rain
7:12 AM 79.0 °F - 75.0 °F 88% 29.73 in 3.0 mi South 5.8 mph - 0.04 in Rain Rain
7:19 AM 79.0 °F - 75.0 °F 88% 29.74 in 2.0 mi WSW 6.9 mph - 0.05 in Rain Light Rain
7:21 AM 79.0 °F - 75.0 °F 88% 29.73 in 1.5 mi SW 4.6 mph - 0.06 in Rain Rain
7:31 AM 78.1 °F - 73.9 °F 87% 29.75 in 1.0 mi West 12.7 mph 19.6 mph 0.11 in Rain Heavy Rain
7:54 AM 77.0 °F - 73.0 °F 88% 29.74 in 1.2 mi West 23.0 mph 29.9 mph 0.26 in Rain Heavy Rain
8:10 AM 77.0 °F - 73.0 °F 88% 29.76 in 0.8 mi SW 13.8 mph - 0.15 in Rain Heavy Rain
8:16 AM 77.0 °F - 73.0 °F 88% 29.76 in 0.5 mi SW 11.5 mph 20.7 mph 0.25 in Fog , Rain Heavy Rain
8:26 AM 77.0 °F - 73.0 °F 88% 29.77 in 1.2 mi WSW 12.7 mph 20.7 mph 0.33 in Rain Heavy Rain
8:39 AM 77.0 °F - 73.0 °F 88% 29.77 in 1.0 mi WSW 16.1 mph 24.2 mph 0.44 in Rain Heavy Rain
8:50 AM 77.0 °F - 73.4 °F 89% 29.77 in 2.5 mi SW 17.3 mph 26.5 mph 0.48 in Rain Heavy Rain
8:54 AM 77.0 °F - 73.0 °F 88% 29.75 in 2.5 mi WSW 13.8 mph 26.5 mph 0.50 in Rain Rain
9:03 AM 77.0 °F - 73.0 °F 88% 29.77 in 3.0 mi WSW 16.1 mph 21.9 mph 0.02 in Rain Rain
9:13 AM 78.1 °F - 73.9 °F 87% 29.77 in 2.0 mi WSW 18.4 mph - 0.05 in Rain Heavy Rain
9:25 AM 78.1 °F - 73.9 °F 87% 29.77 in 4.0 mi WSW 12.7 mph 19.6 mph 0.09 in Rain Rain
9:40 AM 78.1 °F - 73.0 °F 84% 29.77 in 4.0 mi SW 11.5 mph 24.2 mph 0.13 in Rain Rain
9:47 AM 77.0 °F - 73.0 °F 88% 29.77 in 4.0 mi SSW 10.4 mph - 0.14 in Rain Rain
9:54 AM 77.0 °F - 73.0 °F 88% 29.75 in 4.0 mi SSW 9.2 mph - 0.15 in Rain Rain
10:05 AM 78.1 °F - 73.9 °F 87% 29.76 in 5.0 mi SW 8.1 mph - 0.02 in Rain Rain
10:17 AM 78.1 °F - 73.9 °F 87% 29.76 in 4.0 mi SW 6.9 mph - 0.04 in Rain Rain
10:54 AM 78.1 °F - 73.0 °F 84% 29.74 in 7.0 mi WSW 25.3 mph 34.5 mph 0.09 in Rain Light Rain
11:05 AM 78.1 °F - 73.0 °F 84% 29.76 in 7.0 mi WSW 18.4 mph 31.1 mph 0.01 in Rain Light Rain
11:15 AM 77.0 °F - 73.0 °F 88% 29.76 in 6.0 mi WSW 23.0 mph 32.2 mph 0.02 in Rain Light Rain
11:54 AM 78.1 °F - 73.9 °F 87% 29.71 in 9.0 mi WSW 16.1 mph 21.9 mph 0.04 in Rain Light Rain
12:54 PM 79.0 °F - 73.9 °F 84% 29.70 in 7.0 mi WSW 18.4 mph 31.1 mph 0.02 in Rain Light Rain
1:01 PM 79.0 °F - 73.9 °F 84% 29.72 in 10.0 mi WSW 16.1 mph 28.8 mph 0.00 in Rain Light Rain
1:44 PM 80.1 °F 85.4 °F 75.9 °F 87% 29.72 in 10.0 mi West 13.8 mph 21.9 mph 0.00 in   Overcast
1:54 PM 80.1 °F 85.1 °F 75.0 °F 85% 29.70 in 10.0 mi West 18.4 mph 26.5 mph 0.00 in Rain Light Rain
2:30 PM 81.0 °F 87.9 °F 77.0 °F 88% 29.71 in 10.0 mi WSW 13.8 mph - 0.01 in Rain Light Rain
2:50 PM 80.6 °F 86.2 °F 75.2 °F 84% 29.70 in 9.0 mi WSW 13.8 mph - 0.01 in Rain Light Rain
2:57 PM 80.1 °F 85.4 °F 75.9 °F 87% 29.71 in 1.5 mi West 23.0 mph 29.9 mph 0.00 in Rain Light Rain
3:08 PM 79.0 °F - 75.0 °F 88% 29.70 in 3.0 mi West 13.8 mph 24.2 mph 0.08 in Rain Light Rain
3:44 PM 79.0 °F - 75.0 °F 88% 29.71 in 4.0 mi West 20.7 mph 27.6 mph 0.13 in Rain Light Rain
3:54 PM 80.1 °F 85.1 °F 75.0 °F 85% 29.70 in 4.0 mi West 18.4 mph - 0.13 in Rain Light Rain
4:50 PM 80.6 °F 86.2 °F 75.2 °F 84% 29.69 in 7.0 mi West 17.3 mph - 0.00 in   Partly Cloudy
4:54 PM 80.1 °F 85.1 °F 75.0 °F 85% 29.67 in 7.0 mi West 18.4 mph - 0.00 in   Scattered Clouds
5:11 PM 81.0 °F 87.3 °F 75.9 °F 85% 29.70 in 10.0 mi West 23.0 mph 32.2 mph N/A   Mostly Cloudy
5:40 PM 80.1 °F 85.1 °F 75.0 °F 85% 29.70 in 10.0 mi West 15.0 mph - N/A   Scattered Clouds
5:54 PM 80.1 °F 84.5 °F 73.9 °F 81% 29.69 in 10.0 mi West 13.8 mph 24.2 mph N/A   Partly Cloudy
6:17 PM 80.1 °F 84.5 °F 73.9 °F 81% 29.71 in 10.0 mi West 16.1 mph - N/A   Mostly Cloudy
6:54 PM 80.1 °F 85.1 °F 75.0 °F 85% 29.69 in 10.0 mi West 15.0 mph - N/A   Mostly Cloudy
7:01 PM 80.1 °F 84.5 °F 73.9 °F 81% 29.71 in 10.0 mi West 21.9 mph 26.5 mph N/A   Scattered Clouds
7:54 PM 81.0 °F 86.7 °F 75.0 °F 82% 29.70 in 10.0 mi West 15.0 mph 24.2 mph N/A   Mostly Cloudy
8:08 PM 81.0 °F 87.3 °F 75.9 °F 85% 29.73 in 9.0 mi WSW 15.0 mph 20.7 mph N/A   Overcast
8:27 PM 79.0 °F - 75.0 °F 88% 29.74 in 6.0 mi West 17.3 mph 21.9 mph 0.04 in Rain Light Rain
8:38 PM 75.9 °F - 72.0 °F 87% 29.75 in 2.5 mi WSW 19.6 mph 31.1 mph 0.10 in Rain Rain
8:45 PM 75.9 °F - 72.0 °F 87% 29.74 in 4.0 mi WSW 11.5 mph - 0.13 in Rain Light Rain
8:54 PM 75.9 °F - 72.0 °F 87% 29.73 in 10.0 mi WSW 10.4 mph - 0.13 in Rain Light Rain
9:19 PM 80.1 °F 85.1 °F 75.0 °F 85% 29.75 in 9.0 mi West 16.1 mph - 0.00 in Rain Light Rain
9:36 PM 79.0 °F - 75.0 °F 88% 29.75 in 10.0 mi WNW 15.0 mph - 0.00 in   Mostly Cloudy
9:44 PM 80.1 °F 85.1 °F 75.0 °F 85% 29.75 in 10.0 mi WNW 16.1 mph - 0.00 in   Mostly Cloudy
9:52 PM 80.6 °F 86.2 °F 75.2 °F 84% 29.76 in 9.0 mi West 13.8 mph - 0.00 in   Mostly Cloudy
9:54 PM 80.1 °F 85.4 °F 75.9 °F 87% 29.74 in 8.0 mi West 17.3 mph - 0.00 in Rain Light Rain
10:07 PM 80.1 °F 85.4 °F 75.9 °F 87% 29.76 in 10.0 mi West 13.8 mph - 0.00 in Rain Light Rain
10:25 PM 80.1 °F 85.4 °F 75.9 °F 87% 29.74 in 10.0 mi West 15.0 mph - 0.00 in   Mostly Cloudy
10:54 PM 81.0 °F 87.3 °F 75.9 °F 85% 29.73 in 8.0 mi West 16.1 mph - 0.00 in Rain Light Rain
11:06 PM 81.0 °F 87.3 °F 75.9 °F 85% 29.75 in 10.0 mi West 19.6 mph 24.2 mph 0.00 in   Mostly Cloudy
11:15 PM 78.1 °F - 73.0 °F 84% 29.76 in 1.8 mi WSW 18.4 mph 32.2 mph 0.01 in Rain Heavy Rain
11:21 PM 77.0 °F - 73.9 °F 90% 29.77 in 0.8 mi West 15.0 mph 29.9 mph 0.20 in Rain Heavy Rain
11:25 PM 78.1 °F - 75.0 °F 90% 29.76 in 1.0 mi West 15.0 mph 23.0 mph 0.27 in Rain Heavy Rain
11:33 PM 78.1 °F - 75.0 °F 90% 29.76 in 2.0 mi WSW 10.4 mph 24.2 mph 0.34 in Rain Rain
11:42 PM 78.1 °F - 75.0 °F 90% 29.75 in 8.0 mi West 12.7 mph - 0.35 in Rain Light Rain
11:50 PM 78.8 °F - 75.2 °F 89% 29.75 in 10.0 mi West 13.8 mph - 0.35 in   Mostly Cloudy
11:54 PM 79.0 °F - 75.0 °F 88% 29.73 in 10.0 mi WSW 17.3 mph 21.9 mph 0.35 in Rain Light Rain